Location: Dodgeville, WI 53533, USA
(43.0344°N, 90.0900°W)
Time: 08:57:03
(UTC-06:00)

BlueWalker 3 - Pass Details

Date: 11 November 2025
Orbit: 455 x 462 km, 53.2° (Epoch: 11 December)

Event Time Altitude Azimuth Distance (km) Brightness Sun altitude
Exits shadow 04:04:13 13° 129° (SE) 1,441 4.7 -30.1°
Drops below altitude 10° 04:04:37 10° 129° (SE) 1,601 5.0 -30.0°
Sets 04:06:44 0° 129° (SE) 2,470 6.1 -29.6°
